Weather History for KBMG - May, 2011

Change the Weather History Date:

Tuesday, May 3, 2011

  Actual Average Record
Temperature  
Mean Temperature 50 °F 59 °F  
Max Temperature 60 °F 70 °F - ()
Min Temperature 40 °F 48 °F - ()
Degree Days  
Heating Degree Days 15 7  
Month to date heating degree days 37 21  
Since 1 July heating degree days 5138 5135  
Cooling Degree Days 0 1  
Month to date cooling degree days 0 3  
Year to date cooling degree days 15 22  
Growing Degree Days 2 (Base 50)    
Moisture  
Dew Point 41 °F    
Average Humidity 67    
Maximum Humidity 93    
Minimum Humidity 40    
Precipitation  
Precipitation 0.30 in 0.19 in - ()
Month to date precipitation 3.24 0.53  
Year to date precipitation 25.39 15.18  
Sea Level Pressure  
Sea Level Pressure 30.16 in    
Wind  
Wind Speed 7 mph (NW)    
Max Wind Speed 15 mph    
Max Gust Speed 21 mph    
Visibility 10 miles    
Events Rain    
T = Trace of Precipitation, MM = Missing Value Source: NWS Daily Summary

Daily Weather History Graph

Daily Weather History Graph

Search for Another Location

Airport or City:

Trip Planner

Search our weather history database for the weather conditions in past years. The results will help you decide how hot, cold, wet, or windy it might be!

Date:

Astronomy

May. 03, 2011 Rise Set
Actual Time 6:46 AM EDT 8:41 PM EDT
Civil Twilight 6:17 AM EDT 9:10 PM EDT
Nautical Twilight 5:41 AM EDT 9:45 PM EDT
Astronomical Twilight 5:03 AM EDT 10:23 PM EDT
Moon 6:39 AM EDT (5/3) 9:27 PM EDT (5/3)
Length of Visible Light 14h 53m
Length of Day
13h 55m
New Moon, 0% of the Moon is Illuminated
May 3
New Moon
May 10
First Quarter
May 17
Full
May 24
Last Quarter
Jun 1
New

Hourly Weather History & Observations

Time (EDT) Temp. Windchill Dew Point Humidity Pressure Visibility Wind Dir Wind Speed Gust Speed Precip Events Conditions
12:04 AM 46.4 °F 42.9 °F 44.6 °F 93% 30.15 in 10.0 mi NNE 6.9 mph - 0.00 in Rain Light Rain
12:50 AM 46.4 °F 45.2 °F 44.6 °F 93% 30.18 in 10.0 mi Variable 3.5 mph - 0.01 in Rain Light Rain
12:53 AM 46.9 °F - 45.0 °F 93% 30.17 in 9.0 mi NE 5.8 mph - 0.01 in Rain Light Rain
1:53 AM 46.0 °F 42.5 °F 43.0 °F 89% 30.14 in 10.0 mi NE 6.9 mph - 0.02 in Rain Light Rain
2:53 AM 45.0 °F 39.7 °F 43.0 °F 93% 30.09 in 9.0 mi North 10.4 mph - 0.03 in Rain Light Rain
4:53 AM 44.1 °F 37.7 °F 42.1 °F 93% 30.08 in 10.0 mi North 12.7 mph - 0.05 in Rain Light Rain
5:53 AM 44.1 °F 40.8 °F 42.1 °F 93% 30.12 in 10.0 mi NNW 5.8 mph - 0.03 in Rain Light Rain
6:53 AM 44.1 °F 38.6 °F 42.1 °F 93% 30.11 in 7.0 mi NNE 10.4 mph - 0.05 in Rain Rain
7:53 AM 44.1 °F 41.5 °F 42.1 °F 93% 30.15 in 10.0 mi NNW 4.6 mph - 0.04 in   Overcast
8:53 AM 45.0 °F 40.6 °F 43.0 °F 93% 30.13 in 8.0 mi NNE 8.1 mph - 0.00 in   Overcast
9:53 AM 46.9 °F - 44.1 °F 90% 30.16 in 10.0 mi North 3.5 mph - N/A   Mostly Cloudy
10:02 AM 46.4 °F 45.2 °F 42.8 °F 87% 30.17 in 10.0 mi Variable 3.5 mph - N/A   Mostly Cloudy
10:22 AM 46.4 °F 45.2 °F 44.6 °F 93% 30.16 in 10.0 mi Variable 3.5 mph - N/A   Mostly Cloudy
10:53 AM 48.0 °F - 44.1 °F 86% 30.17 in 10.0 mi WNW 3.5 mph - N/A   Overcast
11:30 AM 48.2 °F - 44.6 °F 87% 30.17 in 10.0 mi WNW 5.8 mph - N/A   Overcast
11:53 AM 50.0 °F - 44.1 °F 80% 30.18 in 10.0 mi West 5.8 mph - N/A   Mostly Cloudy
12:48 PM 53.6 °F - 44.6 °F 72% 30.17 in 10.0 mi Variable 6.9 mph - N/A   Mostly Cloudy
12:53 PM 54.0 °F - 45.0 °F 72% 30.17 in 10.0 mi West 8.1 mph - N/A   Mostly Cloudy
1:02 PM 53.6 °F - 42.8 °F 67% 30.17 in 10.0 mi West 9.2 mph - N/A   Mostly Cloudy
1:10 PM 55.4 °F - 42.8 °F 63% 30.17 in 10.0 mi Variable 6.9 mph - N/A   Mostly Cloudy
1:53 PM 57.0 °F - 41.0 °F 55% 30.17 in 10.0 mi Variable 5.8 mph - N/A   Mostly Cloudy
2:53 PM 59.0 °F - 37.9 °F 46% 30.16 in 10.0 mi WNW 9.2 mph - N/A   Clear
3:53 PM 57.9 °F - 37.0 °F 46% 30.16 in 10.0 mi West 5.8 mph - N/A   Scattered Clouds
4:53 PM 59.0 °F - 35.1 °F 41% 30.15 in 10.0 mi West 9.2 mph - N/A   Partly Cloudy
5:53 PM 57.0 °F - 35.1 °F 44% 30.16 in 10.0 mi Variable 6.9 mph - N/A   Mostly Cloudy
7:53 PM 55.0 °F - 36.0 °F 49% 30.17 in 10.0 mi WNW 4.6 mph - N/A   Mostly Cloudy
8:53 PM 53.1 °F - 36.0 °F 52% 30.19 in 10.0 mi WNW 6.9 mph - N/A   Scattered Clouds
9:53 PM 48.0 °F - 36.0 °F 63% 30.23 in 10.0 mi WNW 8.1 mph 16.1 mph N/A   Clear
10:53 PM 46.0 °F 41.9 °F 34.0 °F 63% 30.25 in 10.0 mi WNW 8.1 mph - N/A   Mostly Cloudy
11:53 PM 42.1 °F 38.4 °F 32.0 °F 67% 30.25 in 10.0 mi WNW 5.8 mph - N/A   Clear